星链-1605 (STARLINK-1605 )

导读 | 豆包AI

STARLINK-1605是美国SpaceX公司星链(Starlink)卫星互联网星座的一员,于2020年8月18日发射入轨。作为星链低轨通信星座的组成部分,它运行在近地轨道,服务于全球高速低延迟互联网覆盖,尤其为偏远、基础设施薄弱区域提供网络接入,同时星链也可支持军事与应急通信场景,是全球规模最大卫星互联网项目的重要单元。

基本信息
目录编号:
46123
目录名称:
STARLINK-1605
国际标识:
2020-057G
轨道中心:
EARTH
卫星名称:
星链-1605
卫星全名:
星链-1605 (STARLINK-1605 )
卫星状态:
已陨落 最后检测时间 2026-02-11
发射日期:
2020-08-18 UTC
国别 :
美国 (US)
星等 :
--
轨道信息
数据来源 国际轨道数据
星历时间: 2026-02-12T02:51:08+0800
轨道信息已过期51天
半长轴: 6527.248km
偏心率: 0.0004033
轨道倾角: 53.021°
近地点辐角 246.216°
升交点赤经 326.772°
平近点角 113.847°
近地点: 146.478km
远地点: 151.744km
周期: 87.469分钟
每日圈数: 16.462948
详细信息
固有亮度:
5
最大亮度:
2.5
卫星平台:
Starlink V1.0
覆盖范围:
全球
运营商:
太空探索技术公司
运营商所在国:
美国
制造商(研发单位):
太空探索技术公司
制造商所在国:
美国
使用方式:
暂无
卫星简介
星链(Starlink)计划是由太空探索技术公司(SpaceX)提出的一个巨型低轨卫星互联网星座项目,计划在2019年至2024年间在太空搭建由约1.2万颗卫星组成的“星链”网络,其中1584颗将部署在地球上空550千米处的近地轨道,并从2020年开始工作。该卫星仍在工作。